This is the latest recevied weather packets stored in our database for station/object PY2UTU-WX. If no packets are shown the sender has not sent any weather packets the latest 10 day(s).
| Time | Temp. | Humidity | Pressure | Rain* | Wind** | Luminosity | Snow |
|---|---|---|---|---|---|---|---|
| 1777553842 | 23.89° C | 98% | 924.9 hPa | - | - | - | - |
| 1777552942 | 23.33° C | 98% | 924.9 hPa | - | - | - | - |
| 1777552041 | 22.78° C | 98% | 924.9 hPa | - | - | - | - |
| 1777551141 | 22.78° C | 98% | 924.7 hPa | - | - | - | - |
| 1777550241 | 23.33° C | 98% | 924.7 hPa | - | - | - | - |
| 1777549341 | 24.44° C | 98% | 924.6 hPa | - | - | - | - |
| 1777548442 | 25° C | 98% | 924.4 hPa | - | - | - | - |
| 1777547542 | 24.44° C | 98% | 924 hPa | - | - | - | - |
| 1777546641 | 23.89° C | 98% | 923.9 hPa | - | - | - | - |
| 1777545742 | 23.89° C | 98% | 923.7 hPa | - | - | - | - |
| 1777544841 | 23.33° C | 98% | 923.9 hPa | - | - | - | - |
| 1777543941 | 23.33° C | 98% | 923.2 hPa | - | - | - | - |
| 1777543042 | 22.78° C | 98% | 923 hPa | - | - | - | - |
| 1777542141 | 22.78° C | 98% | 922.8 hPa | - | - | - | - |
| 1777541241 | 22.22° C | 98% | 922.9 hPa | - | - | - | - |
| 1777540341 | 22.22° C | 98% | 922.7 hPa | - | - | - | - |
| 1777539441 | 22.22° C | 98% | 922.5 hPa | - | - | - | - |
| 1777538541 | 22.22° C | 98% | 922.3 hPa | - | - | - | - |
| 1777537641 | 22.22° C | 98% | 922.6 hPa | - | - | - | - |
| 1777536741 | 21.67° C | 98% | 922.4 hPa | - | - | - | - |
| 1777535842 | 21.11° C | 98% | 921.5 hPa | - | - | - | - |
| 1777534941 | 21.67° C | 98% | 922.7 hPa | - | - | - | - |
| 1777534041 | 21.67° C | 98% | 922.8 hPa | - | - | - | - |
| 1777533141 | 21.67° C | 98% | 923.2 hPa | - | - | - | - |
| 1777532241 | 22.22° C | 98% | 923.6 hPa | - | - | - | - |
* Rain since midnight (hover to see other rain measurements)
** Current wind speed in m/s (hover to see current wind gust speed)